EJU21E EHAM-GCLP

Flight info

Callsign EJU21E
Flight time N/A
Altitude 38000
Route IDRID L980 MANGO L620 SAM/N0439F370 M195 LORKU DCT BALDA/N0443F390 DCT ABUPI DCT BEXAL DCT SAMAR
Aircraft A20N/M-SDE2E3FGHIRWXY/LB1

Departure

Time N/A
Airport Amsterdam Airport Schiphol (EHAM)

Arrival

Time 2026-04-30 19:36
Airport Gran Canaria Airport (GCLP)
Time Latitude Longitude Altitude Speed Heading
2026-04-30 19:16 28.87397 -15.14876 25597 ft 412 kts 202°
2026-04-30 19:16 28.66371 -15.22321 21331 ft 377 kts 202°
2026-04-30 19:17 28.56651 -15.25750 19343 ft 364 kts 202°
2026-04-30 19:17 28.46337 -15.29377 17174 ft 351 kts 201°
2026-04-30 19:17 28.41706 -15.31005 16208 ft 345 kts 201°
2026-04-30 19:18 28.34160 -15.33654 14613 ft 337 kts 200°
2026-04-30 19:18 28.29818 -15.35176 14206 ft 334 kts 200°
2026-04-30 19:18 28.27610 -15.35949 14047 ft 327 kts 200°
2026-04-30 19:19 28.25503 -15.36684 13947 ft 314 kts 200°
2026-04-30 19:19 28.23454 -15.37398 13812 ft 303 kts 200°
2026-04-30 19:19 28.19477 -15.38791 13351 ft 300 kts 200°
2026-04-30 19:20 28.17478 -15.39493 13202 ft 300 kts 200°
2026-04-30 19:20 28.15486 -15.40190 13049 ft 299 kts 200°
2026-04-30 19:20 28.11526 -15.41573 12745 ft 297 kts 200°
2026-04-30 19:21 28.09526 -15.42151 12575 ft 299 kts 188°
2026-04-30 19:21 28.05632 -15.40648 12273 ft 312 kts 140°
2026-04-30 19:22 28.02542 -15.37168 11965 ft 311 kts 137°
2026-04-30 19:22 27.97994 -15.31970 11502 ft 308 kts 137°
2026-04-30 19:23 27.93512 -15.26929 11072 ft 305 kts 138°
2026-04-30 19:24 27.90509 -15.23558 10773 ft 303 kts 138°
2026-04-30 19:24 27.89017 -15.21885 10643 ft 300 kts 137°
2026-04-30 19:24 27.86162 -15.18679 10477 ft 278 kts 138°
2026-04-30 19:25 27.82243 -15.14290 9577 ft 259 kts 138°
2026-04-30 19:26 27.79700 -15.11449 8915 ft 256 kts 137°
2026-04-30 19:26 27.77181 -15.08640 8250 ft 253 kts 139°
2026-04-30 19:26 27.75713 -15.07673 7902 ft 247 kts 168°
2026-04-30 19:27 27.72592 -15.08599 7155 ft 240 kts 227°
2026-04-30 19:27 27.71238 -15.11994 6475 ft 240 kts 252°
2026-04-30 19:28 27.70717 -15.13781 6153 ft 239 kts 251°
2026-04-30 19:28 27.70196 -15.17433 5494 ft 238 kts 272°
2026-04-30 19:29 27.70370 -15.21176 4838 ft 239 kts 273°
2026-04-30 19:29 27.70446 -15.23045 4551 ft 237 kts 273°
2026-04-30 19:30 27.70600 -15.28456 3913 ft 223 kts 272°
2026-04-30 19:30 27.70685 -15.31940 3654 ft 222 kts 272°
2026-04-30 19:31 27.70798 -15.35406 3414 ft 219 kts 278°
2026-04-30 19:31 27.71142 -15.37048 3291 ft 218 kts 291°
2026-04-30 19:31 27.72275 -15.40216 3044 ft 217 kts 292°
2026-04-30 19:32 27.72830 -15.41794 2999 ft 215 kts 295°
2026-04-30 19:32 27.73708 -15.43122 3001 ft 217 kts 322°
2026-04-30 19:32 27.75030 -15.43930 3004 ft 217 kts 335°
2026-04-30 19:32 27.76388 -15.44627 2998 ft 208 kts 335°
2026-04-30 19:33 27.77692 -15.45165 2989 ft 194 kts 355°
2026-04-30 19:33 27.79052 -15.44956 2867 ft 202 kts 16°
2026-04-30 19:33 27.80375 -15.44394 2541 ft 204 kts 21°
2026-04-30 19:33 27.81692 -15.43780 2242 ft 204 kts 22°
2026-04-30 19:34 27.82987 -15.43182 2012 ft 197 kts 22°
2026-04-30 19:34 27.84241 -15.42625 1715 ft 189 kts 21°
2026-04-30 19:34 27.86480 -15.41634 1235 ft 158 kts 22°
2026-04-30 19:35 27.87441 -15.41208 1042 ft 143 kts 22°
2026-04-30 19:35 27.88332 -15.40806 872 ft 137 kts 24°
2026-04-30 19:35 27.89229 -15.40407 718 ft 138 kts 22°
2026-04-30 19:35 27.90143 -15.40003 486 ft 143 kts 23°
2026-04-30 19:36 27.91060 -15.39597 294 ft 140 kts 23°
2026-04-30 19:36 27.91944 -15.39207 104 ft 137 kts 24°
2026-04-30 19:36 27.93159 -15.38672 55 ft 38 kts 22°
2026-04-30 19:37 27.93412 -15.38559 57 ft 40 kts 21°
2026-04-30 19:37 27.93659 -15.38452 56 ft 36 kts 17°
2026-04-30 19:37 27.93884 -15.38430 60 ft 16 kts 351°
2026-04-30 19:37 27.93903 -15.38434 62 ft 8 kts 351°
2026-04-30 19:38 27.93972 -15.38446 70 ft 10 kts 351°
2026-04-30 19:38 27.94036 -15.38470 63 ft 7 kts 304°
2026-04-30 19:38 27.94052 -15.38515 68 ft 7 kts 294°
2026-04-30 19:38 27.94074 -15.38571 66 ft 9 kts 292°
2026-04-30 19:39 27.94055 -15.38630 80 ft 9 kts 216°
2026-04-30 19:39 27.93992 -15.38663 85 ft 11 kts 199°
2026-04-30 19:39 27.93918 -15.38699 84 ft 10 kts 231°
2026-04-30 19:39 27.93933 -15.38765 87 ft 7 kts 291°
2026-04-30 19:40 27.93940 -15.38784 87 ft 0 kts 291°
2026-04-30 19:41 27.93977 -15.38777 87 ft 0 kts 337°